This is the latest recevied weather packets stored in our database for station/object 4S6DRJ-13. If no packets are shown the sender has not sent any weather packets the latest 10 day(s).
| Time | Temp. | Humidity | Pressure | Rain* | Wind** | Luminosity | Snow |
|---|---|---|---|---|---|---|---|
| 1787849871 | 27.78° C | 88% | 1011 hPa | 0 mm | 1.34 m/s, 253° | 0 W/m² | - |
| 1787849810 | 27.78° C | 88% | 1011.1 hPa | 0 mm | 1.79 m/s, 206° | 0 W/m² | - |
| 1787849749 | 27.78° C | 87% | 1011.2 hPa | 0 mm | 1.79 m/s, 256° | 0 W/m² | - |
| 1787849688 | 27.78° C | 88% | 1011.2 hPa | 0 mm | 0.45 m/s, 123° | 0 W/m² | - |
| 1787849627 | 27.78° C | 88% | 1011 hPa | 0 mm | 0.45 m/s, 231° | 0 W/m² | - |
| 1787849567 | 27.78° C | 88% | 1011.2 hPa | 0 mm | 0.89 m/s, 255° | 0 W/m² | - |
| 1787849505 | 27.78° C | 88% | 1011.1 hPa | 0 mm | 1.34 m/s, 237° | 0 W/m² | - |
| 1787849444 | 27.78° C | 88% | 1011.1 hPa | 0 mm | 0.89 m/s, 215° | 0 W/m² | - |
| 1787849383 | 27.78° C | 88% | 1011.1 hPa | 0 mm | 0 m/s | 0 W/m² | - |
| 1787849323 | 27.78° C | 88% | 1011 hPa | 0 mm | 0.45 m/s, 176° | 0 W/m² | - |
| 1787849261 | 27.78° C | 88% | 1011.3 hPa | 0 mm | 0.45 m/s, 253° | 0 W/m² | - |
| 1787849203 | 27.78° C | 88% | 1011.1 hPa | 0 mm | 1.34 m/s, 225° | 0 W/m² | - |
| 1787849139 | 27.78° C | 88% | 1011.2 hPa | 0 mm | 0.89 m/s, 302° | 0 W/m² | - |
| 1787849078 | 27.78° C | 88% | 1011.1 hPa | 0 mm | 1.34 m/s, 155° | 0 W/m² | - |
| 1787849018 | 27.78° C | 88% | 1011.1 hPa | 0 mm | 0.89 m/s, 237° | 0 W/m² | - |
| 1787848956 | 27.78° C | 88% | 1011 hPa | 0 mm | 0.89 m/s, 231° | 0 W/m² | - |
| 1787848895 | 27.78° C | 88% | 1011.2 hPa | 0 mm | 3.13 m/s, 218° | 0 W/m² | - |
| 1787848834 | 27.78° C | 88% | 1011 hPa | 0 mm | 1.34 m/s, 176° | 0 W/m² | - |
| 1787848773 | 27.78° C | 88% | 1010.9 hPa | 0 mm | 0.89 m/s, 240° | 0 W/m² | - |
| 1787848713 | 27.78° C | 88% | 1011 hPa | 0 mm | 0.89 m/s, 255° | 0 W/m² | - |
| 1787848651 | 27.78° C | 87% | 1011 hPa | 0 mm | 0.45 m/s, 287° | 0 W/m² | - |
| 1787848594 | 27.78° C | 87% | 1011.2 hPa | 0 mm | 0.89 m/s, 224° | 0 W/m² | - |
| 1787848529 | 27.78° C | 87% | 1011 hPa | 0 mm | 1.34 m/s, 230° | 0 W/m² | - |
| 1787848468 | 27.78° C | 87% | 1011.2 hPa | 0 mm | 0.45 m/s, 252° | 0 W/m² | - |
| 1787848406 | 27.78° C | 87% | 1011 hPa | 0 mm | 0.89 m/s, 271° | 0 W/m² | - |
* Rain latest hour (hover to see other rain measurements)
** Current wind speed in m/s (hover to see current wind gust speed)